<?xml version="1.0"?>
<rss version="2.0">
   <channel>
   <title>[RADIOCOMM LIST]</title>
   <link>https://aus-city.com/cgi-bin/dada/mail.cgi/list/RADIOCOMM_LIST/</link>
   <description>Radio Comm Report list.  Deals with all modes of communications in the 150 KHz to 1300 MHz, including solar and atmospheric conditions.</description>
   <language>en-us</language>
   <lastBuildDate>Sat, 18 Apr 2026 19:48:00 GMT</lastBuildDate>
   <generator>Pro Dada v11.22.0 stable 2023-09-18</generator>
   
    
	 
		<item>
		 <title> ALERT: Electron 2 MeV Integral Flux exceeded 1,000 pfu</title>
		 <link>https://aus-city.com/cgi-bin/dada/mail.cgi/archive/RADIOCOMM_LIST/20260417003759/</link>
		 <description>
                
                &#60;PRE&#62;Space Weather Message Code: ALTEF3

Serial Number: 3678

Issue Time: 2026 Apr 17 0731 UTC



CONTINUED ALERT: Electron 2MeV Integral Flux exceeded 1000pfu

Continuation of Serial Number: 3677

Begin Time: 2026 Apr 03 0920 UTC

Yesterday Maximum 2MeV Flux: 2407 pfu






Potential Impacts: Satellite systems may experience significant charging resulting in increased risk to satellite systems.&#60;/PRE&#62;&#60;BR&#62;&#60;HR&#62;Thank you for using the Product Subscription Service. If you would like to remove a product subscription or update the personal information in your account, go to the &#60;a href=&#34;https://pss.swpc.noaa.gov&#34;&#62;Product Subscription Site.&#60;/a&#62; Please do not use the from address for correspondence, as it is not monitored. For comments or help, please contact &#60;a href=&#34;mailto:&#38;#112;&#38;#x73;&#38;#115;&#38;#x2E;&#38;#104;&#38;#x65;&#38;#108;&#38;#x70;&#38;#64;&#38;#x6E;&#38;#x6F;&#38;#x61;&#38;#97;&#38;#x2E;&#38;#x67;&#38;#x6F;&#38;#x76;&#34;&#62;SWPC Help.&#60;/a&#62;
                
                
&lt;!-- begin subscription_form_widget.tmpl --&gt; 


	&lt;form 
		action=&quot;https://aus-city.com/cgi-bin/dada/mail.cgi&quot; 
		method=&quot;post&quot; 
		accept-charset=&quot;UTF-8&quot; 
		id=&quot;subscription_form&quot;
		
			target=&quot;_self&quot;
		
	&gt;

	&lt;input type=&quot;hidden&quot; name=&quot;flavor&quot; id=&quot;ddm_flavor&quot; value=&quot;subscribe&quot; &gt;

	    &lt;div class=&quot;row&quot;&gt;
	        &lt;div class=&quot;small-12 columns&quot;&gt;

		 
		    &lt;input 
				type=&quot;hidden&quot; 
				name=&quot;list&quot; 
				id=&quot;ddm_list&quot; 
				value=&quot;RADIOCOMM_LIST&quot; 
			&gt;
		     
				
		    
		


		  
			      &lt;div class=&quot;row&quot;&gt;
			        &lt;div class=&quot;large-4 medium-4 columns&quot;&gt;
						&lt;label 
							class=&quot;medium-text-right&quot;
					  		for=&quot;ddm_email&quot; 
					  	&gt;
							Email Address
						&lt;/label&gt;
			        &lt;/div&gt;
			        &lt;div class=&quot;large-8 medium-8 columns&quot;&gt;
						 
							&lt;input 
								type=&quot;email&quot; 
								name=&quot;email&quot; 
								id=&quot;ddm_email&quot; 
								value=&quot;&quot;
								required=&quot;required&quot; 
								placeholder=&quot;user@example.com (required)&quot;
								&gt;
						 
			        &lt;/div&gt;
			      &lt;/div&gt;

	  
		 
			&lt;div id=&quot;ddm_subscriber_fields&quot;&gt; 
			 
			
			
			
				
			
			
			
			
			
			
			
			
			&lt;/div&gt; 
		
		
		

		
			
		
			
		
				
					
				&lt;input 
					type=&quot;hidden&quot;
					id=&quot;g-recaptcha-response_sf&quot;
					class=&quot;g-recaptcha-response&quot;
					name=&quot;g-recaptcha-response&quot;
				&gt;
				
				
				&lt;div class=&quot;row&quot;&gt;
					&lt;div class=&quot;large-4 medium-4 columns&quot;&gt;
						&amp;nbsp;
					&lt;/div&gt; 
					&lt;div class=&quot;large-8 medium-8 columns&quot;&gt;
						
					&lt;/div&gt;
				&lt;/div&gt;
				 
			
		
		
		&lt;div class=&quot;row&quot;&gt;
			&lt;div class=&quot;large-4 medium-4 columns&quot;&gt;
				&amp;nbsp;
			&lt;/div&gt; 
			&lt;div class=&quot;large-8 medium-8 columns&quot;&gt;
						&lt;input 
							type=&quot;submit&quot; 
							name=&quot;submit_button&quot;
							value=&quot;Subscribe&quot; 
							class=&quot;button success expand&quot; 
							id=&quot;ddm_subscribe_button&quot;
						&gt;
			&lt;/div&gt;
		&lt;/div&gt;
		
		&lt;div class=&quot;row&quot;&gt;
			&lt;div class=&quot;large-12 medium-12 columns large-centered medium-centered&quot;&gt;
				
					&lt;p class=&quot;text-center&quot;&gt; 
						Unsubscribe at Anytime
						| 
						&lt;a 
							href=&quot;https://aus-city.com/cgi-bin/dada/mail.cgi/privacy_policy/RADIOCOMM_LIST/&quot; 
							target=&quot;_blank&quot;
						&gt; 
							Privacy Policy
						&lt;/a&gt;
					&lt;/p&gt;
				
			&lt;/div&gt;
		&lt;/div&gt;
	&lt;/div&gt;
	&lt;/div&gt;
&lt;/form&gt; 

&lt;!-- end subscription_form_widget.tmpl --&gt; 
</description>
		 <pubDate>Fri, 17 Apr 2026 07:37:00 GMT</pubDate>
		 <guid>https://aus-city.com/cgi-bin/dada/mail.cgi/archive/RADIOCOMM_LIST/20260417003759/</guid>
		</item>

	
	 
		<item>
		 <title> [Keps] orb26107.2l.amsat</title>
		 <link>https://aus-city.com/cgi-bin/dada/mail.cgi/archive/RADIOCOMM_LIST/20260416172248/</link>
		 <description>
                
                
			  	&#60;p&#62;SB KEPS @ AMSAT  $ORB26107.1
2Line Orbital Elements 26107.AMSAT&#60;/p&#62;

&#60;p&#62;QST de W1STR&#60;/p&#62;

&#60;p&#62;AMSAT Orbital Elements for Amateur Satellites in TLE Format&#60;/p&#62;

&#60;blockquote&#62;
  &#60;p&#62;From Orbital Analysis Office
  New England Sci-Tech STEM Education Center
  Natick MA April 17, 2026
  To all radio amateurs&#60;/p&#62;
&#60;/blockquote&#62;

&#60;p&#62;These element sets describe the orbits of various satellites 
in use by the amateur radio community. For details see:
www.amsat.org/keplerian-elements-formats/&#60;/p&#62;

&#60;p&#62;A daily update of element sets is available at:
www.amsat.org/tle/daily-bulletin.txt
or without bulletin text:
www.amsat.org/tle/dailytle.txt&#60;/p&#62;

MinXSS-2
1 43758U 18099A   26106.62159983  .00019172  00000-0  43644-3 0  9996
2 43758  97.4571 181.2880 0009310 128.6955 231.5127 15.42960978404627
AO-95
1 43770U 18099N   26106.43991084  .00006404  00000-0  25638-3 0  9992
2 43770  97.4438 166.9622 0008748 194.9739 165.1241 15.25376721403803
SNUSat 2
1 43782U 18099AA  26106.11170095  .00004585  00000-0  21030-3 0  9991
2 43782  97.4121 160.4755 0011586 147.1252 213.0707 15.20875776403590
SnugLite
1 43784U 18099AC  26106.39332667  .00006287  00000-0  24855-3 0  9997
2 43784  97.3932 161.3267 0004290 132.1628 227.9975 15.25827595403899
ITASat 1
1 43786U 18099AE  26106.41418573  .00003901  00000-0  19339-3 0  9994
2 43786  97.4092 159.1767 0012352 200.8082 159.2651 15.18260159403532
EAGLET 1
1 43790U 18099AJ  26106.86481713  .00002332  00000-0  13759-3 0  9991
2 43790  97.4295 158.1602 0011024 189.3822 170.7205 15.12467826403062
ESEO
1 43792U 18099AL  26106.84452250  .00001127  00000-0  85527-4 0  9999
2 43792  97.4045 146.8476 0012309 174.8526 185.2830 15.04062345402586
JO-97
1 43803U 18099AX  26106.13633634  .00009640  00000-0  31721-3 0  9995
2 43803  97.4187 168.8347 0007364 127.2922 232.8992 15.31697363404128
Suomi 100
1 43804U 18099AY  26106.43932022  .00006556  00000-0  24955-3 0  9996
2 43804  97.4246 167.1128 0011646 134.4423 225.7771 15.27023675403992
ISAT
1 43879U 18111D   26106.59469111  .00041089  00000-0  58697-3 0  9994
2 43879  97.5910  37.5607 0007784 135.3048 224.8835 15.56116208401565
UWE-4
1 43880U 18111E   26106.71974515  .00017922  00000-0  41496-3 0  9997
2 43880  97.5863  32.4646 0008586 167.3462 192.8002 15.42477857401292
Sparrow
1 43881U 18111F   26106.76215787  .00052764  00000-0  62260-3 0  9997
2 43881  97.6131  42.5005 0005357 143.0101 217.1526 15.61174849401756
Prox-1
1 44339U 19036A   26106.84131889  .00007706  00000-0  76741-3 0  9997
2 44339  23.9945 163.5574 0006708  49.6523 310.4561 14.89143258364310
Taurus 1
1 44530U 19059C   26106.85084199  .00002843  00000-0  46775-3 0  9998
2 44530  98.6354 267.9241 0009762 142.0032 218.1863 14.71403364349626
TO-108
1 44881U 19093C   26106.85537198 -.00000180  00000-0 -14336-4 0  9990
2 44881  97.7562 180.5793 0012171 291.9880  68.0043 14.86418057342302
RS-44
1 44909U 19096E   26106.47666898  .00000002  00000-0 -29956-4 0  9998
2 44909  82.5263  20.7099 0216439 288.8111  68.9625 12.79747884294452
SALSAT
1 46495U 20068K   26106.57607044  .00004776  00000-0  17294-3 0  9992
2 46495  97.8862 105.9354 0010820 149.7925 210.3939 15.28882964305946
CSS (TIANHE-1)
1 48274U 21035A   26106.76755394  .00015996  00000-0  17822-3 0  9990
2 48274  41.4683 336.1456 0005888 221.8433 138.1956 15.62454512283565
CUTE
1 49263U 21088D   26106.22698882  .00057607  00000-0  42207-3 0  9996
2 49263  97.4202 200.6909 0003101 192.8273 167.2912 15.73006353252766
TeikyoSat 4
1 49396U 21102B   26106.60008373  .00000879  00000-0  58912-4 0  9992
2 49396  97.3734 138.4692 0013165 139.4931 220.7281 15.09286974243434
Z-Sat
1 49399U 21102E   26106.82905010  .00001958  00000-0  99780-4 0  9990
2 49399  97.3395 144.0158 0018530 100.7570 259.5751 15.17788024244133
KOSEN 1
1 49402U 21102H   26106.84683837  .00004735  00000-0  18646-3 0  9994
2 49402  97.3255 150.2142 0015441  68.5190 291.7693 15.25981743244665
HO-113
1 50466U 21131B   26106.82556955  .00000324  00000-0  11388-3 0  9992
2 50466  98.4950 199.5592 0002863 287.4349  72.6526 14.41297095226273
SNUGLITE 2
1 52899U 22065F   26106.66770595  .00000617  00000-0  12628-3 0  9994
2 52899  98.2109 251.6415 0006911 207.9485 152.1347 14.64228263201992
UmKA 1 (RS40S)
1 57172U 23091G   26106.82317694  .00003580  00000-0  16855-3 0  9996
2 57172  97.5106 165.7720 0012079 340.5018  19.5753 15.20129990154682
CubeBel-2 (EU11S)
1 57175U 23091K   26106.83899708  .00007779  00000-0  28958-3 0  9992
2 57175  97.5103 169.5619 0009066 339.6427  20.4449 15.27729674154939
RS-38S
1 57189U 23091Z   26106.80605972  .00009267  00000-0  28299-3 0  9994
2 57189  97.5135 175.1432 0005891 289.5310  70.5296 15.34113657155271
SONATE-2
1 59112U 24043Q   26106.35524219  .00022415  00000-0  34275-3 0  9995
2 59112  97.5459 253.2023 0007256  74.0118 286.1934 15.54378993118273
GRBBeta
1 60237U 24128C   26106.61983524  .00002321  00000-0  16871-3 0  9992
2 60237  61.9893  72.1901 0047928 121.6814 238.8966 15.06143194 96998
Curium One
1 60242U 24128H   26106.60074895  .00004549  00000-0  27322-3 0  9996
2 60242  61.9787  63.7340 0047549 118.0234 242.5683 15.11525906 97141
ROBUSTA-3A
1 60243U 24128J   26106.59809221  .00004326  00000-0  26609-3 0  9994
2 60243  61.9862  65.8806 0048657 115.4480 245.1661 15.10709317 97112
CatSat
1 60246U 24125J   26106.56863223  .00030621  00000-0  49418-3 0  9993
2 60246  97.2159 318.5515 0025351  53.9105 306.4490 15.52471372 97818
HYPERVIEW-1G (RS66S)
1 61772U 24199AP  26106.83768131  .00049604  00000-0  53007-3 0  9991
2 61772  97.3005 344.0487 0009312 132.3480 227.8570 15.63712431125052
